| time (UTC) | temp F | wind direction | speed knots | gust knots | rain 1hr in | rain 24hr in | rain mn in | humidity % | barometer mb |
| 20260906065641 | 72 | 88 | 1.7 | 2.6 | 0.00 | 0.00 | 0.00 | 88 | 1017.2 |
| 20260906065136 | 72 | 206 | 0.9 | 0.9 | 0.00 | 0.00 | 0.00 | 87 | 1017.3 |
| 20260906064632 | 72 | 205 | 0.0 | 0.9 | 0.00 | 0.00 | 0.00 | 87 | 1017.2 |
| 20260906064127 | 72 | 184 | 0.9 | 0.9 | 0.00 | 0.00 | 0.00 | 87 | 1017.2 |
| 20260906063622 | 72 | 184 | 1.7 | 1.7 | 0.00 | 0.00 | 0.00 | 87 | 1017.2 |
| 20260906063118 | 72 | 175 | 0.9 | 1.7 | 0.00 | 0.00 | 0.00 | 86 | 1017.2 |
| 20260906062614 | 72 | 215 | 1.7 | 1.7 | 0.00 | 0.00 | 0.00 | 86 | 1017.2 |
| 20260906062112 | 72 | 200 | 0.9 | 0.9 | 0.00 | 0.00 | 0.00 | 86 | 1017.4 |
| 20260906061609 | 72 | 188 | 0.9 | 0.9 | 0.00 | 0.00 | 0.00 | 86 | 1017.2 |
| 20260906061108 | 73 | 204 | 0.9 | 0.9 | 0.00 | 0.00 | 0.00 | 86 | 1017.3 |
| 20260906060605 | 73 | 212 | 0.9 | 0.9 | 0.00 | 0.00 | 0.00 | 86 | 1017.3 |
| 20260906055557 | 73 | 203 | 0.0 | 0.0 | 0.00 | 0.00 | 0.00 | 86 | 1017.1 |
| 20260906055053 | 73 | 218 | 0.0 | 0.0 | 0.00 | 0.00 | 0.00 | 86 | 1017.2 |
| 20260906054553 | 73 | 216 | 0.0 | 0.0 | 0.00 | 0.00 | 0.00 | 85 | 1017.1 |
| 20260906054048 | 73 | 193 | 0.0 | 0.9 | 0.00 | 0.00 | 0.00 | 85 | 1017.3 |
| 20260906053544 | 74 | 200 | 0.9 | 0.9 | 0.00 | 0.00 | 0.00 | 85 | 1017.1 |
| 20260906053039 | 74 | 144 | 2.6 | 5.2 | 0.00 | 0.00 | 0.00 | 85 | 1017.1 |
| 20260906052535 | 74 | 232 | 0.0 | 0.9 | 0.00 | 0.00 | 0.00 | 84 | 1017.1 |
| 20260906052032 | 74 | 331 | 0.9 | 0.9 | 0.00 | 0.00 | 0.00 | 84 | 1017.3 |
| 20260906051527 | 74 | 197 | 0.9 | 0.9 | 0.00 | 0.00 | 0.00 | 84 | 1017.1 |
| 20260906051023 | 74 | 212 | 0.9 | 0.9 | 0.00 | 0.00 | 0.00 | 84 | 1017.2 |
| 20260906050518 | 74 | 198 | 0.9 | 1.7 | 0.00 | 0.00 | 0.00 | 84 | 1017.1 |
| 20260906050012 | 74 | 238 | 1.7 | 2.6 | 0.00 | 0.00 | 0.00 | 84 | 1017.0 |
| 20260906045510 | 74 | 219 | 0.0 | 0.0 | 0.00 | 0.00 | 0.00 | 84 | 1017.2 |
| 20260906045007 | 75 | 217 | 0.0 | 0.9 | 0.00 | 0.00 | 0.00 | 84 | 1017.1 |
| 20260906044502 | 75 | 265 | 2.6 | 4.3 | 0.00 | 0.00 | 0.00 | 84 | 1017.0 |
| 20260906043957 | 75 | 215 | 0.0 | 0.0 | 0.00 | 0.00 | 0.00 | 84 | 1017.0 |
| 20260906043453 | 75 | 198 | 0.0 | 0.0 | 0.00 | 0.00 | 0.00 | 84 | 1016.5 |
| 20260906042949 | 75 | 200 | 0.9 | 1.7 | 0.00 | 0.00 | 0.00 | 85 | 1016.7 |
| 20260906042448 | 75 | 218 | 1.7 | 2.6 | 0.00 | 0.00 | 0.00 | 85 | 1016.6 |
| 20260906041948 | 75 | 284 | 1.7 | 1.7 | 0.00 | 0.00 | 0.00 | 85 | 1016.5 |
| 20260906041444 | 75 | 316 | 0.9 | 1.7 | 0.00 | 0.00 | 0.00 | 86 | 1016.5 |
| 20260906040943 | 75 | 38 | 2.6 | 2.6 | 0.00 | 0.00 | 0.00 | 86 | 1016.5 |
| 20260906040439 | 74 | 196 | 0.9 | 2.6 | 0.00 | 0.00 | 0.00 | 86 | 1016.2 |
| 20260906035934 | 75 | 224 | 0.0 | 0.0 | 0.00 | 0.00 | 0.00 | 86 | 1016.2 |
| 20260906035429 | 75 | 223 | 0.9 | 0.9 | 0.00 | 0.00 | 0.00 | 86 | 1016.3 |
| 20260906034924 | 75 | 216 | 0.0 | 0.0 | 0.00 | 0.00 | 0.00 | 86 | 1016.2 |
| 20260906034419 | 75 | 230 | 0.9 | 0.9 | 0.00 | 0.00 | 0.00 | 86 | 1015.9 |
| 20260906033915 | 75 | 215 | 0.0 | 0.0 | 0.00 | 0.00 | 0.00 | 85 | 1015.8 |
| 20260906033415 | 75 | 223 | 0.9 | 0.9 | 0.00 | 0.00 | 0.00 | 85 | 1016.1 |
| 20260906032910 | 75 | 232 | 0.9 | 0.9 | 0.00 | 0.00 | 0.00 | 85 | 1016.1 |
| 20260906032407 | 75 | 237 | 0.9 | 0.9 | 0.00 | 0.00 | 0.00 | 85 | 1016.1 |
| 20260906031901 | 75 | 238 | 0.9 | 0.9 | 0.00 | 0.00 | 0.00 | 85 | 1016.0 |
| 20260906031356 | 75 | 215 | 0.0 | 0.0 | 0.00 | 0.00 | 0.00 | 85 | 1015.9 |
| 20260906030851 | 75 | 214 | 0.0 | 0.0 | 0.00 | 0.00 | 0.00 | 85 | 1015.9 |
| 20260906030346 | 75 | 208 | 0.0 | 0.9 | 0.00 | 0.00 | 0.00 | 85 | 1015.7 |
| 20260906025841 | 75 | 213 | 0.0 | 0.0 | 0.00 | 0.00 | 0.00 | 85 | 1015.7 |
| 20260906025335 | 75 | 215 | 0.0 | 0.0 | 0.00 | 0.00 | 0.00 | 85 | 1015.7 |
| 20260906024834 | 75 | 198 | 0.9 | 0.9 | 0.00 | 0.00 | 0.00 | 85 | 1015.7 |
| 20260906024333 | 75 | 203 | 0.9 | 0.9 | 0.00 | 0.00 | 0.00 | 85 | 1015.7 |
| 20260906023829 | 75 | 204 | 0.0 | 0.0 | 0.00 | 0.00 | 0.00 | 85 | 1015.4 |
| 20260906023324 | 75 | 206 | 0.9 | 0.9 | 0.00 | 0.00 | 0.00 | 85 | 1015.6 |
| 20260906022820 | 75 | 206 | 0.0 | 0.0 | 0.00 | 0.00 | 0.00 | 85 | 1015.4 |
| 20260906022315 | 75 | 209 | 0.0 | 0.0 | 0.00 | 0.00 | 0.00 | 85 | 1015.6 |
| 20260906021810 | 75 | 201 | 0.0 | 0.0 | 0.00 | 0.00 | 0.00 | 84 | 1015.4 |
| 20260906021304 | 75 | 188 | 0.0 | 0.0 | 0.00 | 0.00 | 0.00 | 84 | 1015.6 |
| 20260906020759 | 75 | 209 | 0.0 | 0.9 | 0.00 | 0.00 | 0.00 | 84 | 1015.3 |
| 20260906020259 | 75 | 161 | 0.9 | 0.9 | 0.00 | 0.00 | 0.00 | 85 | 1015.2 |
| 20260906015759 | 75 | 230 | 0.0 | 0.0 | 0.00 | 0.00 | 0.00 | 85 | 1014.8 |
| 20260906015257 | 75 | 208 | 0.0 | 0.0 | 0.00 | 0.00 | 0.00 | 84 | 1015.1 |
| 20260906014752 | 75 | 216 | 0.0 | 0.0 | 0.00 | 0.00 | 0.00 | 84 | 1014.8 |
| 20260906014248 | 75 | 213 | 0.0 | 0.0 | 0.00 | 0.00 | 0.00 | 84 | 1015.0 |
| 20260906013744 | 76 | 242 | 0.9 | 0.9 | 0.00 | 0.00 | 0.00 | 84 | 1015.1 |
| 20260906013243 | 76 | 205 | 0.0 | 0.9 | 0.00 | 0.00 | 0.00 | 84 | 1014.7 |
| 20260906012739 | 76 | 181 | 0.0 | 0.0 | 0.00 | 0.00 | 0.00 | 84 | 1015.0 |
| 20260906012233 | 76 | 220 | 0.9 | 0.9 | 0.00 | 0.00 | 0.00 | 83 | 1015.0 |
| 20260906011729 | 76 | 210 | 0.0 | 0.0 | 0.00 | 0.00 | 0.00 | 83 | 1015.0 |
| 20260906011223 | 76 | 227 | 0.0 | 0.9 | 0.00 | 0.00 | 0.00 | 83 | 1014.8 |
| 20260906010719 | 77 | 215 | 0.9 | 0.9 | 0.00 | 0.00 | 0.00 | 83 | 1015.2 |
| 20260906010215 | 77 | 219 | 0.0 | 0.0 | 0.00 | 0.00 | 0.00 | 82 | 1015.0 |
| 20260906005715 | 77 | 317 | 1.7 | 2.6 | 0.00 | 0.00 | 0.00 | 82 | 1015.0 |
| 20260906005209 | 77 | 207 | 0.0 | 0.0 | 0.00 | 0.00 | 0.00 | 82 | 1015.1 |
| 20260906004708 | 77 | 302 | 0.9 | 1.7 | 0.00 | 0.00 | 0.00 | 81 | 1015.2 |
| 20260906004203 | 78 | 203 | 0.9 | 1.7 | 0.00 | 0.00 | 0.00 | 81 | 1015.1 |
| 20260906003658 | 78 | 229 | 0.9 | 0.9 | 0.00 | 0.00 | 0.00 | 81 | 1014.7 |
| 20260906003154 | 78 | 223 | 1.7 | 1.7 | 0.00 | 0.00 | 0.00 | 81 | 1014.7 |
| 20260906002654 | 79 | 71 | 3.5 | 4.3 | 0.00 | 0.00 | 0.00 | 80 | 1015.0 |
| 20260906002148 | 79 | 223 | 0.9 | 0.9 | 0.00 | 0.00 | 0.00 | 80 | 1014.8 |
| 20260906001643 | 79 | 184 | 0.9 | 1.7 | 0.00 | 0.00 | 0.00 | 79 | 1015.2 |
| 20260906001138 | 80 | 220 | 2.6 | 2.6 | 0.00 | 0.00 | 0.00 | 79 | 1014.8 |
| 20260906000634 | 80 | 220 | 1.7 | 4.3 | 0.00 | 0.00 | 0.00 | 78 | 1014.8 |
| 20260906000129 | 80 | 219 | 0.9 | 0.9 | 0.00 | 0.00 | 0.00 | 78 | 1014.6 |
| 20260905235627 | 81 | 198 | 3.5 | 6.1 | 0.00 | 0.00 | 0.00 | 78 | 1014.7 |
| 20260905235123 | 82 | 147 | 1.7 | 2.6 | 0.00 | 0.00 | 0.00 | 77 | 1014.6 |
| 20260905234618 | 83 | 237 | 3.5 | 4.3 | 0.00 | 0.00 | 0.00 | 76 | 1014.6 |
| 20260905234113 | 83 | 231 | 1.7 | 1.7 | 0.00 | 0.00 | 0.00 | 76 | 1014.5 |
| 20260905233608 | 83 | 220 | 0.0 | 0.9 | 0.00 | 0.00 | 0.00 | 76 | 1014.5 |
| 20260905233103 | 84 | 91 | 2.6 | 2.6 | 0.00 | 0.00 | 0.00 | 76 | 1014.6 |
| 20260905232558 | 84 | 44 | 6.1 | 7.0 | 0.00 | 0.00 | 0.00 | 76 | 1014.4 |
| 20260905232054 | 84 | 15 | 5.2 | 7.0 | 0.00 | 0.00 | 0.00 | 75 | 1014.4 |
| 20260905231549 | 84 | 284 | 2.6 | 2.6 | 0.00 | 0.00 | 0.00 | 75 | 1014.5 |
| 20260905231045 | 85 | 245 | 1.7 | 2.6 | 0.00 | 0.00 | 0.00 | 75 | 1014.3 |
| 20260905230544 | 85 | 72 | 4.3 | 5.2 | 0.00 | 0.00 | 0.00 | 76 | 1014.4 |
| 20260905230043 | 85 | 354 | 4.3 | 5.2 | 0.00 | 0.00 | 0.00 | 76 | 1014.2 |
| 20260905225538 | 85 | 335 | 3.5 | 4.3 | 0.00 | 0.00 | 0.00 | 76 | 1014.4 |
| 20260905225032 | 86 | 150 | 2.6 | 2.6 | 0.00 | 0.00 | 0.00 | 75 | 1014.2 |
| 20260905224527 | 86 | 184 | 2.6 | 4.3 | 0.00 | 0.00 | 0.00 | 76 | 1014.4 |
| 20260905224026 | 85 | 341 | 7.8 | 9.6 | 0.00 | 0.00 | 0.00 | 76 | 1014.2 |
| 20260905223525 | 86 | 16 | 5.2 | 7.0 | 0.00 | 0.00 | 0.00 | 76 | 1014.3 |
| 20260905223020 | 86 | 349 | 7.8 | 11.3 | 0.00 | 0.00 | 0.00 | 75 | 1014.0 |
| 20260905222514 | 87 | 265 | 5.2 | 6.1 | 0.00 | 0.00 | 0.00 | 74 | 1014.3 |
| 20260905222009 | 87 | 137 | 4.3 | 5.2 | 0.00 | 0.00 | 0.00 | 74 | 1014.0 |
| 20260905221506 | 86 | 253 | 3.5 | 5.2 | 0.00 | 0.00 | 0.00 | 74 | 1014.0 |
| 20260905221002 | 86 | 350 | 5.2 | 7.0 | 0.00 | 0.00 | 0.00 | 73 | 1013.9 |
| 20260905220457 | 86 | 330 | 4.3 | 7.0 | 0.00 | 0.00 | 0.00 | 73 | 1013.9 |
| 20260905215956 | 86 | 21 | 6.1 | 7.0 | 0.00 | 0.00 | 0.00 | 74 | 1014.3 |
| 20260905215452 | 86 | 9 | 7.0 | 9.6 | 0.00 | 0.00 | 0.00 | 74 | 1014.2 |
| 20260905214948 | 87 | 9 | 7.8 | 11.3 | 0.00 | 0.00 | 0.00 | 74 | 1014.0 |
| 20260905214443 | 88 | 94 | 3.5 | 4.3 | 0.00 | 0.00 | 0.00 | 73 | 1014.0 |
| 20260905213938 | 87 | 197 | 3.5 | 5.2 | 0.00 | 0.00 | 0.00 | 73 | 1013.8 |
| 20260905213434 | 89 | 8 | 6.1 | 8.7 | 0.00 | 0.00 | 0.00 | 73 | 1013.9 |
| 20260905212929 | 90 | 270 | 1.7 | 1.7 | 0.00 | 0.00 | 0.00 | 70 | 1014.1 |
| 20260905212424 | 91 | 169 | 1.7 | 2.6 | 0.00 | 0.00 | 0.00 | 69 | 1013.9 |
| 20260905211923 | 91 | 200 | 0.0 | 0.0 | 0.00 | 0.00 | 0.00 | 69 | 1014.0 |
| 20260905211419 | 90 | 302 | 0.9 | 1.7 | 0.00 | 0.00 | 0.00 | 71 | 1013.7 |
| 20260905210915 | 89 | 195 | 0.9 | 0.9 | 0.00 | 0.00 | 0.00 | 71 | 1013.7 |
| 20260905210414 | 89 | 298 | 2.6 | 4.3 | 0.00 | 0.00 | 0.00 | 72 | 1013.6 |
| 20260905205914 | 89 | 339 | 7.8 | 11.3 | 0.00 | 0.00 | 0.00 | 71 | 1014.0 |
| 20260905205404 | 90 | 314 | 2.6 | 5.2 | 0.00 | 0.00 | 0.00 | 71 | 1013.8 |
| 20260905204902 | 90 | 297 | 0.9 | 4.3 | 0.00 | 0.00 | 0.00 | 71 | 1013.9 |
| 20260905204359 | 90 | 181 | 0.0 | 0.9 | 0.00 | 0.00 | 0.00 | 71 | 1014.0 |
| 20260905203857 | 90 | 122 | 3.5 | 5.2 | 0.00 | 0.00 | 0.00 | 70 | 1014.0 |
| 20260905203353 | 89 | 303 | 2.6 | 2.6 | 0.00 | 0.00 | 0.00 | 71 | 1014.0 |
| 20260905202848 | 89 | 2 | 2.6 | 4.3 | 0.00 | 0.00 | 0.00 | 73 | 1014.2 |
| 20260905202343 | 89 | 25 | 6.1 | 7.0 | 0.00 | 0.00 | 0.00 | 70 | 1014.1 |
| 20260905201838 | 90 | 10 | 4.3 | 6.1 | 0.00 | 0.00 | 0.00 | 70 | 1014.2 |
| 20260905201334 | 91 | 351 | 4.3 | 6.1 | 0.00 | 0.00 | 0.00 | 68 | 1014.1 |
| 20260905200828 | 91 | 353 | 7.8 | 8.7 | 0.00 | 0.00 | 0.00 | 67 | 1013.8 |
| 20260905200326 | 89 | 203 | 3.5 | 5.2 | 0.00 | 0.00 | 0.00 | 69 | 1013.9 |
| 20260905195822 | 90 | 41 | 5.2 | 7.8 | 0.00 | 0.00 | 0.00 | 69 | 1013.7 |
| 20260905195317 | 89 | 215 | 0.0 | 0.9 | 0.00 | 0.00 | 0.00 | 68 | 1013.9 |
| 20260905194813 | 91 | 13 | 6.1 | 8.7 | 0.00 | 0.00 | 0.00 | 68 | 1014.0 |
| 20260905194307 | 91 | 231 | 2.6 | 2.6 | 0.00 | 0.00 | 0.00 | 67 | 1014.0 |
| 20260905193806 | 91 | 231 | 0.9 | 0.9 | 0.00 | 0.00 | 0.00 | 68 | 1013.9 |
| 20260905193301 | 91 | 275 | 1.7 | 2.6 | 0.00 | 0.00 | 0.00 | 69 | 1014.2 |
| 20260905192756 | 91 | 240 | 0.9 | 0.9 | 0.00 | 0.00 | 0.00 | 69 | 1014.1 |
| 20260905192253 | 91 | 227 | 1.7 | 2.6 | 0.00 | 0.00 | 0.00 | 68 | 1014.2 |
| 20260905191752 | 92 | 25 | 1.7 | 1.7 | 0.00 | 0.00 | 0.00 | 67 | 1014.3 |
| 20260905191250 | 92 | 231 | 0.9 | 1.7 | 0.00 | 0.00 | 0.00 | 65 | 1014.3 |
| 20260905190749 | 92 | 235 | 0.0 | 0.0 | 0.00 | 0.00 | 0.00 | 67 | 1014.3 |
| 20260905190248 | 91 | 326 | 4.3 | 6.1 | 0.00 | 0.00 | 0.00 | 68 | 1014.3 |
| 20260905185742 | 90 | 204 | 1.7 | 1.7 | 0.00 | 0.00 | 0.00 | 68 | 1014.4 |
| 20260905185237 | 90 | 352 | 5.2 | 6.1 | 0.00 | 0.00 | 0.00 | 68 | 1014.4 |
| 20260905184736 | 92 | 260 | 2.6 | 4.3 | 0.00 | 0.00 | 0.00 | 67 | 1014.3 |
| 20260905184236 | 92 | 318 | 2.6 | 2.6 | 0.00 | 0.00 | 0.00 | 66 | 1014.4 |
| 20260905183730 | 92 | 219 | 1.7 | 1.7 | 0.00 | 0.00 | 0.00 | 66 | 1014.2 |
| 20260905183225 | 93 | 345 | 5.2 | 6.1 | 0.00 | 0.00 | 0.00 | 64 | 1014.5 |
| 20260905182719 | 93 | 216 | 0.9 | 0.9 | 0.00 | 0.00 | 0.00 | 65 | 1014.4 |
| 20260905182219 | 91 | 217 | 0.9 | 0.9 | 0.00 | 0.00 | 0.00 | 65 | 1014.5 |
| 20260905181714 | 91 | 247 | 1.7 | 1.7 | 0.00 | 0.00 | 0.00 | 66 | 1014.6 |
| 20260905181213 | 91 | 5 | 5.2 | 7.0 | 0.00 | 0.00 | 0.00 | 67 | 1014.6 |
| 20260905180708 | 91 | 354 | 2.6 | 5.2 | 0.00 | 0.00 | 0.00 | 67 | 1014.5 |
| 20260905180203 | 91 | 225 | 0.9 | 0.9 | 0.00 | 0.00 | 0.00 | 68 | 1014.5 |
| 20260905175703 | 90 | 304 | 0.9 | 1.7 | 0.00 | 0.00 | 0.00 | 67 | 1014.6 |
| 20260905175157 | 90 | 5 | 4.3 | 5.2 | 0.00 | 0.00 | 0.00 | 68 | 1014.5 |
| 20260905174653 | 90 | 355 | 6.1 | 6.1 | 0.00 | 0.00 | 0.00 | 66 | 1014.6 |
| 20260905174149 | 91 | 224 | 0.9 | 1.7 | 0.00 | 0.00 | 0.00 | 66 | 1014.6 |
| 20260905173645 | 94 | 345 | 3.5 | 4.3 | 0.00 | 0.00 | 0.00 | 63 | 1014.8 |
| 20260905173140 | 94 | 203 | 1.7 | 1.7 | 0.00 | 0.00 | 0.00 | 62 | 1014.5 |
| 20260905172639 | 93 | 218 | 0.0 | 0.9 | 0.00 | 0.00 | 0.00 | 64 | 1014.7 |
| 20260905172133 | 95 | 208 | 0.0 | 0.0 | 0.00 | 0.00 | 0.00 | 62 | 1014.7 |
| 20260905171630 | 94 | 210 | 0.0 | 0.9 | 0.00 | 0.00 | 0.00 | 63 | 1015.0 |
| 20260905171125 | 93 | 35 | 0.9 | 0.9 | 0.00 | 0.00 | 0.00 | 64 | 1015.0 |
| 20260905170622 | 92 | 237 | 0.9 | 1.7 | 0.00 | 0.00 | 0.00 | 65 | 1015.0 |
| 20260905170117 | 92 | 27 | 2.6 | 4.3 | 0.00 | 0.00 | 0.00 | 67 | 1014.7 |
| 20260905165611 | 89 | 204 | 0.0 | 0.0 | 0.00 | 0.00 | 0.00 | 67 | 1015.0 |
| 20260905165107 | 90 | 337 | 3.5 | 5.2 | 0.00 | 0.00 | 0.00 | 67 | 1015.2 |
| 20260905164601 | 90 | 55 | 1.7 | 1.7 | 0.00 | 0.00 | 0.00 | 66 | 1015.1 |
| 20260905164056 | 93 | 277 | 0.9 | 1.7 | 0.00 | 0.00 | 0.00 | 65 | 1015.3 |
| 20260905163552 | 92 | 218 | 0.9 | 0.9 | 0.00 | 0.00 | 0.00 | 67 | 1015.0 |
| 20260905163048 | 93 | 243 | 0.0 | 0.9 | 0.00 | 0.00 | 0.00 | 63 | 1015.2 |
| 20260905162545 | 92 | 229 | 1.7 | 1.7 | 0.00 | 0.00 | 0.00 | 63 | 1015.1 |
| 20260905162044 | 93 | 217 | 0.9 | 1.7 | 0.00 | 0.00 | 0.00 | 65 | 1015.1 |
| 20260905161543 | 91 | 237 | 0.9 | 0.9 | 0.00 | 0.00 | 0.00 | 67 | 1015.0 |
| 20260905161041 | 87 | 210 | 0.0 | 0.0 | 0.00 | 0.00 | 0.00 | 73 | 1015.0 |
| 20260905160540 | 87 | 306 | 4.3 | 6.1 | 0.00 | 0.00 | 0.00 | 73 | 1015.2 |
| 20260905160035 | 87 | 340 | 2.6 | 4.3 | 0.00 | 0.00 | 0.00 | 72 | 1015.0 |
| 20260905155535 | 88 | 353 | 2.6 | 5.2 | 0.00 | 0.00 | 0.00 | 72 | 1015.2 |
| 20260905155033 | 87 | 198 | 2.6 | 2.6 | 0.00 | 0.00 | 0.00 | 73 | 1015.0 |
| 20260905154528 | 87 | 255 | 4.3 | 6.1 | 0.00 | 0.00 | 0.00 | 73 | 1015.1 |
| 20260905154024 | 87 | 17 | 4.3 | 5.2 | 0.00 | 0.00 | 0.00 | 73 | 1014.8 |
| 20260905153519 | 88 | 210 | 0.9 | 1.7 | 0.00 | 0.00 | 0.00 | 73 | 1014.8 |
| 20260905153014 | 88 | 200 | 1.7 | 2.6 | 0.00 | 0.00 | 0.00 | 73 | 1015.0 |
| 20260905152514 | 87 | 215 | 0.9 | 0.9 | 0.00 | 0.00 | 0.00 | 75 | 1014.8 |
| 20260905152009 | 86 | 356 | 5.2 | 6.1 | 0.00 | 0.00 | 0.00 | 75 | 1014.8 |
| 20260905151504 | 87 | 256 | 0.9 | 1.7 | 0.00 | 0.00 | 0.00 | 73 | 1014.8 |
| 20260905150959 | 87 | 206 | 1.7 | 1.7 | 0.00 | 0.00 | 0.00 | 73 | 1014.8 |
| 20260905150454 | 89 | 213 | 0.9 | 0.9 | 0.00 | 0.00 | 0.00 | 70 | 1014.7 |
| 20260905145951 | 89 | 221 | 0.0 | 0.9 | 0.00 | 0.00 | 0.00 | 71 | 1014.6 |
| 20260905145445 | 88 | 229 | 0.9 | 0.9 | 0.00 | 0.00 | 0.00 | 71 | 1014.4 |
| 20260905144945 | 86 | 206 | 0.0 | 0.0 | 0.00 | 0.00 | 0.00 | 75 | 1014.6 |
| 20260905144440 | 88 | 180 | 0.9 | 1.7 | 0.00 | 0.00 | 0.00 | 72 | 1014.3 |
| 20260905143939 | 87 | 197 | 0.0 | 0.9 | 0.00 | 0.00 | 0.00 | 74 | 1014.5 |
| 20260905143438 | 85 | 197 | 0.0 | 0.9 | 0.00 | 0.00 | 0.00 | 78 | 1014.3 |
| 20260905142933 | 84 | 226 | 0.9 | 0.9 | 0.00 | 0.00 | 0.00 | 79 | 1014.3 |
| 20260905142432 | 84 | 302 | 3.5 | 4.3 | 0.00 | 0.00 | 0.00 | 79 | 1014.0 |
| 20260905141928 | 83 | 200 | 0.9 | 1.7 | 0.00 | 0.00 | 0.00 | 81 | 1014.1 |
| 20260905141422 | 83 | 355 | 3.5 | 5.2 | 0.00 | 0.00 | 0.00 | 82 | 1013.9 |
| 20260905140919 | 83 | 329 | 4.3 | 5.2 | 0.00 | 0.00 | 0.00 | 83 | 1014.3 |
| 20260905140414 | 83 | 268 | 2.6 | 2.6 | 0.00 | 0.00 | 0.00 | 82 | 1014.0 |
| 20260905135912 | 83 | 211 | 0.9 | 0.9 | 0.00 | 0.00 | 0.00 | 83 | 1013.9 |
| 20260905135408 | 82 | 263 | 1.7 | 1.7 | 0.00 | 0.00 | 0.00 | 83 | 1014.0 |
| 20260905134904 | 82 | 222 | 0.0 | 0.9 | 0.00 | 0.00 | 0.00 | 84 | 1014.0 |
| 20260905134402 | 81 | 233 | 0.0 | 0.0 | 0.00 | 0.00 | 0.00 | 85 | 1013.9 |
| 20260905133857 | 81 | 219 | 0.9 | 0.9 | 0.00 | 0.00 | 0.00 | 86 | 1014.0 |
| 20260905133352 | 80 | 352 | 2.6 | 2.6 | 0.00 | 0.00 | 0.00 | 87 | 1014.1 |
| 20260905132851 | 80 | 281 | 0.9 | 1.7 | 0.00 | 0.00 | 0.00 | 87 | 1014.0 |
| 20260905132346 | 80 | 246 | 1.7 | 1.7 | 0.00 | 0.00 | 0.00 | 87 | 1013.7 |
| 20260905131840 | 80 | 266 | 0.9 | 0.9 | 0.00 | 0.00 | 0.00 | 87 | 1013.8 |
| 20260905131336 | 79 | 208 | 0.9 | 0.9 | 0.00 | 0.00 | 0.00 | 88 | 1013.9 |
| 20260905130832 | 79 | 218 | 0.9 | 0.9 | 0.00 | 0.00 | 0.00 | 88 | 1013.7 |
| 20260905130330 | 78 | 218 | 0.9 | 0.9 | 0.00 | 0.00 | 0.00 | 89 | 1014.0 |
| 20260905125826 | 78 | 239 | 0.9 | 0.9 | 0.00 | 0.00 | 0.00 | 90 | 1014.1 |
| 20260905125321 | 77 | 4 | 2.6 | 4.3 | 0.00 | 0.00 | 0.00 | 91 | 1013.9 |
| 20260905124817 | 77 | 278 | 1.7 | 1.7 | 0.00 | 0.00 | 0.00 | 92 | 1013.9 |
| 20260905124313 | 77 | 246 | 1.7 | 1.7 | 0.00 | 0.00 | 0.00 | 92 | 1013.8 |
| 20260905123808 | 77 | 222 | 0.0 | 0.0 | 0.00 | 0.00 | 0.00 | 93 | 1013.8 |
| 20260905123305 | 76 | 215 | 0.0 | 0.0 | 0.00 | 0.00 | 0.00 | 93 | 1013.8 |
| 20260905122804 | 76 | 214 | 0.0 | 0.0 | 0.00 | 0.00 | 0.00 | 93 | 1013.7 |
| 20260905122306 | 76 | 214 | 0.0 | 0.0 | 0.00 | 0.00 | 0.00 | 93 | 1013.7 |
| 20260905121759 | 76 | 292 | 0.0 | 0.0 | 0.00 | 0.00 | 0.00 | 93 | 1013.8 |
| 20260905121255 | 76 | 284 | 0.0 | 0.0 | 0.00 | 0.00 | 0.00 | 93 | 1013.7 |
| 20260905120753 | 76 | 248 | 0.0 | 0.0 | 0.00 | 0.00 | 0.00 | 93 | 1013.4 |
| 20260905120248 | 76 | 231 | 0.0 | 0.0 | 0.00 | 0.00 | 0.00 | 94 | 1013.3 |
| 20260905115743 | 76 | 222 | 0.0 | 0.0 | 0.00 | 0.00 | 0.00 | 93 | 1013.2 |
| 20260905115243 | 76 | 223 | 0.0 | 0.0 | 0.00 | 0.00 | 0.00 | 93 | 1013.0 |
| 20260905114742 | 76 | 218 | 0.0 | 0.0 | 0.00 | 0.00 | 0.00 | 93 | 1012.9 |
| 20260905114241 | 76 | 218 | 0.0 | 0.0 | 0.00 | 0.00 | 0.00 | 93 | 1012.8 |
| 20260905113740 | 76 | 220 | 0.0 | 0.0 | 0.00 | 0.00 | 0.00 | 93 | 1012.8 |
| 20260905113236 | 76 | 217 | 0.0 | 0.0 | 0.00 | 0.00 | 0.00 | 93 | 1012.9 |
| 20260905112731 | 76 | 214 | 0.0 | 0.0 | 0.00 | 0.00 | 0.00 | 93 | 1012.7 |
| 20260905112226 | 76 | 218 | 0.0 | 0.0 | 0.00 | 0.00 | 0.00 | 92 | 1012.8 |
| 20260905111721 | 76 | 215 | 0.0 | 0.0 | 0.00 | 0.00 | 0.00 | 92 | 1012.6 |
| 20260905111215 | 76 | 217 | 0.0 | 0.0 | 0.00 | 0.00 | 0.00 | 92 | 1012.6 |
| 20260905110715 | 76 | 218 | 0.0 | 0.0 | 0.00 | 0.00 | 0.00 | 92 | 1012.7 |
| 20260905110209 | 77 | 219 | 0.0 | 0.0 | 0.00 | 0.00 | 0.00 | 92 | 1012.9 |
| 20260905105705 | 77 | 213 | 0.0 | 0.0 | 0.00 | 0.00 | 0.00 | 91 | 1012.8 |
| 20260905105203 | 77 | 219 | 0.0 | 0.0 | 0.00 | 0.00 | 0.00 | 91 | 1012.6 |
| 20260905104658 | 77 | 212 | 0.0 | 0.0 | 0.00 | 0.00 | 0.00 | 91 | 1012.6 |
| 20260905104155 | 77 | 215 | 0.0 | 0.0 | 0.00 | 0.00 | 0.00 | 91 | 1012.5 |
| 20260905103649 | 77 | 228 | 0.0 | 0.0 | 0.00 | 0.00 | 0.00 | 91 | 1012.6 |
| 20260905103145 | 77 | 226 | 0.0 | 0.0 | 0.00 | 0.00 | 0.00 | 90 | 1012.7 |
| 20260905102641 | 77 | 230 | 0.0 | 0.9 | 0.00 | 0.00 | 0.00 | 90 | 1012.7 |
| 20260905102137 | 78 | 221 | 0.0 | 0.0 | 0.00 | 0.00 | 0.00 | 90 | 1012.6 |
| 20260905101635 | 78 | 219 | 0.0 | 0.0 | 0.00 | 0.00 | 0.00 | 90 | 1012.7 |
| 20260905101134 | 78 | 226 | 0.0 | 0.9 | 0.00 | 0.00 | 0.00 | 89 | 1012.6 |
| 20260905100630 | 78 | 217 | 0.0 | 0.0 | 0.00 | 0.00 | 0.00 | 89 | 1012.6 |
| 20260905100125 | 78 | 236 | 0.0 | 0.9 | 0.00 | 0.00 | 0.00 | 89 | 1012.8 |
| 20260905095619 | 78 | 218 | 0.0 | 0.9 | 0.00 | 0.00 | 0.00 | 89 | 1012.8 |
| 20260905095114 | 79 | 242 | 0.9 | 0.9 | 0.00 | 0.00 | 0.00 | 89 | 1012.9 |
| 20260905094610 | 79 | 228 | 0.9 | 0.9 | 0.00 | 0.00 | 0.00 | 89 | 1012.9 |
| 20260905094109 | 79 | 253 | 0.9 | 0.9 | 0.00 | 0.00 | 0.00 | 89 | 1013.0 |
| 20260905093609 | 79 | 268 | 0.9 | 0.9 | 0.00 | 0.00 | 0.00 | 89 | 1012.8 |
| 20260905093105 | 79 | 240 | 0.9 | 0.9 | 0.00 | 0.00 | 0.00 | 88 | 1013.0 |
| 20260905092605 | 79 | 235 | 0.9 | 0.9 | 0.00 | 0.00 | 0.00 | 89 | 1013.0 |
| 20260905092101 | 79 | 239 | 0.9 | 0.9 | 0.00 | 0.00 | 0.00 | 89 | 1013.0 |
| 20260905091600 | 79 | 246 | 1.7 | 1.7 | 0.00 | 0.00 | 0.00 | 89 | 1013.0 |
| 20260905091055 | 79 | 250 | 0.9 | 0.9 | 0.00 | 0.00 | 0.00 | 90 | 1012.8 |
| 20260905090555 | 78 | 187 | 0.0 | 0.9 | 0.00 | 0.00 | 0.00 | 90 | 1012.6 |
| 20260905090050 | 78 | 202 | 0.0 | 0.9 | 0.00 | 0.00 | 0.00 | 91 | 1012.7 |
| 20260905085548 | 78 | 200 | 0.9 | 0.9 | 0.00 | 0.00 | 0.00 | 91 | 1012.7 |
| 20260905085044 | 78 | 209 | 0.0 | 0.0 | 0.00 | 0.00 | 0.00 | 91 | 1012.6 |
| 20260905084544 | 78 | 201 | 0.0 | 0.9 | 0.00 | 0.00 | 0.00 | 91 | 1012.8 |
| 20260905084039 | 78 | 202 | 0.0 | 0.0 | 0.00 | 0.00 | 0.00 | 91 | 1013.1 |
| 20260905083533 | 78 | 209 | 0.0 | 0.0 | 0.00 | 0.00 | 0.00 | 90 | 1012.8 |
| 20260905083030 | 78 | 210 | 0.0 | 0.0 | 0.00 | 0.00 | 0.00 | 90 | 1012.9 |
| 20260905082525 | 78 | 205 | 0.0 | 0.0 | 0.00 | 0.00 | 0.00 | 90 | 1013.0 |
| 20260905082022 | 79 | 206 | 0.0 | 0.0 | 0.00 | 0.00 | 0.00 | 90 | 1013.1 |
| 20260905081521 | 79 | 206 | 0.0 | 0.0 | 0.00 | 0.00 | 0.00 | 89 | 1013.0 |
| 20260905081021 | 79 | 209 | 0.0 | 0.0 | 0.00 | 0.00 | 0.00 | 89 | 1013.1 |
| 20260905080515 | 79 | 218 | 0.0 | 0.0 | 0.00 | 0.00 | 0.00 | 89 | 1013.2 |
| 20260905080011 | 79 | 218 | 0.0 | 0.0 | 0.00 | 0.00 | 0.00 | 88 | 1013.2 |
| 20260905075503 | 79 | 213 | 0.0 | 0.0 | 0.00 | 0.00 | 0.00 | 88 | 1013.1 |
| 20260905075003 | 79 | 214 | 0.0 | 0.0 | 0.00 | 0.00 | 0.00 | 88 | 1013.0 |
| 20260905074458 | 79 | 218 | 0.0 | 0.0 | 0.00 | 0.00 | 0.00 | 88 | 1013.0 |
| 20260905073954 | 79 | 232 | 0.0 | 0.0 | 0.00 | 0.00 | 0.00 | 89 | 1013.2 |
| 20260905073448 | 79 | 217 | 0.0 | 0.9 | 0.00 | 0.00 | 0.00 | 89 | 1013.2 |
| 20260905072944 | 79 | 210 | 0.0 | 0.0 | 0.00 | 0.00 | 0.00 | 90 | 1013.2 |
| 20260905072438 | 79 | 206 | 0.0 | 0.0 | 0.00 | 0.00 | 0.00 | 90 | 1013.1 |
| 20260905071934 | 79 | 214 | 0.0 | 0.0 | 0.00 | 0.00 | 0.00 | 90 | 1013.4 |
| 20260905071426 | 79 | 209 | 0.0 | 0.0 | 0.00 | 0.00 | 0.00 | 90 | 1013.0 |
| 20260905070924 | 79 | 209 | 0.0 | 0.0 | 0.00 | 0.00 | 0.00 | 90 | 1013.0 |
| 20260905070421 | 79 | 209 | 0.0 | 0.0 | 0.00 | 0.00 | 0.00 | 90 | 1013.2 |
| 20260905065920 | 78 | 208 | 0.0 | 0.0 | 0.00 | 0.00 | 0.00 | 90 | 1013.1 |